Location: Jesenik
(50.2330°N, 17.2000°E)
Time: 07:54:26
(UTC+02:00)

ISS - Pass Details

Date: 28 March 2019
Orbit: 408 x 410 km, 51.6° (Epoch: 24 April)

Event Time Altitude Azimuth Distance (km) Brightness Sun altitude
Rises 19:18:53 0° 262° (W) 2,334 1.3 -10.6°
Reaches altitude 10° 19:20:58 10° 264° (W) 1,473 0.2 -10.9°
Maximum altitude 19:24:16 75° 350° (N) 428 -3.7 -11.4°
Enters shadow 19:26:52 15° 75° (ENE) 1,188 -2.0 -11.8°
